This is the latest recevied weather packets stored in our database for station/object WC4PEM-7. If no packets are shown the sender has not sent any weather packets the latest 10 day(s).
| Time | Temp. | Humidity | Pressure | Rain* | Wind** | Luminosity | Snow |
|---|---|---|---|---|---|---|---|
| 1777415413 | 29.44° C | 57% | 1016.5 hPa | 0 mm | - | - | - |
| 1777415343 | 29.44° C | 58% | 1016.5 hPa | 0 mm | - | - | - |
| 1777415043 | 29.44° C | 57% | 1016.5 hPa | 0 mm | - | - | - |
| 1777414906 | 30.56° C | 54% | 1016.2 hPa | 0 mm | - | - | - |
| 1777414743 | 29.44° C | 56% | 1016.5 hPa | 0 mm | - | - | - |
| 1777414443 | 30° C | 56% | 1016.5 hPa | 0 mm | - | - | - |
| 1777414143 | 30° C | 54% | 1016.4 hPa | 0 mm | - | - | - |
| 1777413843 | 30° C | 53% | 1016.4 hPa | 0 mm | - | - | - |
| 1777413727 | 30° C | 54% | 1016.4 hPa | 0 mm | - | - | - |
| 1777413543 | 30° C | 54% | 1016.4 hPa | 0 mm | - | - | - |
| 1777413243 | 30° C | 54% | 1016.3 hPa | 0 mm | - | - | - |
| 1777413124 | 30° C | 53% | 1016.3 hPa | 0 mm | - | - | - |
| 1777412943 | 30° C | 53% | 1016.3 hPa | 0 mm | - | - | - |
| 1777412644 | 30.56° C | 52% | 1016.2 hPa | 0 mm | - | - | - |
| 1777412512 | 30.56° C | 53% | 1016.1 hPa | 0 mm | - | - | - |
| 1777412344 | 30.56° C | 53% | 1016.1 hPa | 0 mm | - | - | - |
| 1777412044 | 30.56° C | 51% | 1016.2 hPa | 0 mm | - | - | - |
| 1777411843 | 30.56° C | 54% | 1016.2 hPa | 0 mm | - | - | - |
| 1777411744 | 30.56° C | 54% | 1016.2 hPa | 0 mm | - | - | - |
| 1777411701 | 30.56° C | 52% | 1016.5 hPa | 0 mm | - | - | - |
| 1777411444 | 30° C | 54% | 1016.3 hPa | 0 mm | - | - | - |
| 1777411144 | 30.56° C | 52% | 1016.5 hPa | 0 mm | - | - | - |
| 1777410844 | 30.56° C | 52% | 1016.4 hPa | 0 mm | - | - | - |
| 1777410544 | 30.56° C | 52% | 1016.5 hPa | 0 mm | - | - | - |
| 1777410464 | 30.56° C | 52% | 1016.6 hPa | 0 mm | - | - | - |
* Rain latest hour (hover to see other rain measurements)
** Current wind speed in m/s (hover to see current wind gust speed)